Oakland, CA

8:42 PM PDT on August 26, 2016 (GMT -0700)
Metro Oakland International

Weather History for KOAK - November, 2012

Change the Weather History Date:

Sunday, November 18, 2012

  Actual Average Record
Temperature  
Mean Temperature 58 °F 54 °F  
Max Temperature 63 °F 63 °F 71 °F (1971)
Min Temperature 52 °F 45 °F 32 °F (2000)
Degree Days  
Heating Degree Days 7 11  
Month to date heating degree days 126 167  
Since 1 July heating degree days 535 519  
Cooling Degree Days 0 0  
Month to date cooling degree days 2 0  
Year to date cooling degree days 61 137  
Growing Degree Days 8 (Base 50)    
Moisture  
Dew Point 49 °F    
Average Humidity 71    
Maximum Humidity 93    
Minimum Humidity 48    
Precipitation  
Precipitation T in 0.10 in 1.86 in (1950)
Month to date precipitation 1.18 1.42  
Year to date precipitation 13.95 16.12  
Since 1 July precipitation 2.01  
Sea Level Pressure  
Sea Level Pressure 30.12 in    
Wind  
Wind Speed 3 mph (SW)    
Max Wind Speed 10 mph    
Max Gust Speed 20 mph    
Visibility 10 miles    
Events      
T = Trace of Precipitation, MM = Missing Value Source: NWS Daily Summary

Daily Weather History Graph

Daily Weather History Graph

Search for Another Location

Airport or City:

Trip Planner

Search our weather history database for the weather conditions in past years. The results will help you decide how hot, cold, wet, or windy it might be!

Date:

Astronomy

Nov. 18, 2012 Rise Set
Actual Time 6:52 AM PST 4:55 PM PST
Civil Twilight 6:24 AM PST 5:23 PM PST
Nautical Twilight 5:52 AM PST 5:55 PM PST
Astronomical Twilight 5:21 AM PST 6:26 PM PST
Moon 11:24 AM PST (11/18) 10:19 PM PST (11/18)
Length of Visible Light 10h 58m
Length of Day
10h 02m
Waxing Crescent, 31% of the Moon is Illuminated
Nov 18
Waxing Crescent
Nov 20
First Quarter
Nov 28
Full
Dec 6
Last Quarter
Dec 13
New

Hourly Weather History & Observations

Time (PST) Temp. Dew Point Humidity Pressure Visibility Wind Dir Wind Speed Gust Speed Precip Events Conditions
12:16 AM 57.2 °F 53.6 °F 88% 30.03 in 10.0 mi West 5.8 mph - 0.01 in   Overcast
12:53 AM 57.0 °F 54.0 °F 89% 30.04 in 10.0 mi West 5.8 mph - 0.01 in   Mostly Cloudy
1:53 AM 57.0 °F 53.1 °F 87% 30.05 in 10.0 mi West 5.8 mph - N/A   Overcast
2:53 AM 55.9 °F 53.1 °F 90% 30.05 in 10.0 mi WNW 3.5 mph - N/A   Overcast
3:53 AM 55.9 °F 48.9 °F 77% 30.05 in 10.0 mi WNW 4.6 mph - N/A   Mostly Cloudy
4:53 AM 55.9 °F 48.9 °F 77% 30.07 in 10.0 mi West 4.6 mph - N/A   Mostly Cloudy
5:53 AM 54.0 °F 48.9 °F 83% 30.09 in 10.0 mi East 3.5 mph - N/A   Mostly Cloudy
6:53 AM 53.1 °F 48.0 °F 83% 30.10 in 10.0 mi Calm Calm - N/A   Mostly Cloudy
7:53 AM 55.9 °F 52.0 °F 87% 30.12 in 10.0 mi SSE 5.8 mph - N/A   Mostly Cloudy
8:53 AM 57.0 °F 53.1 °F 87% 30.13 in 10.0 mi SE 8.1 mph - N/A   Mostly Cloudy
9:53 AM 57.9 °F 53.1 °F 84% 30.14 in 10.0 mi SSE 8.1 mph - N/A   Scattered Clouds
10:53 AM 60.1 °F 53.1 °F 78% 30.15 in 10.0 mi SSE 8.1 mph - N/A   Mostly Cloudy
11:53 AM 61.0 °F 48.0 °F 62% 30.14 in 10.0 mi Calm Calm - N/A   Scattered Clouds
12:53 PM 62.1 °F 46.9 °F 58% 30.13 in 10.0 mi South 3.5 mph - N/A   Mostly Cloudy
1:53 PM 63.0 °F 43.0 °F 48% 30.14 in 10.0 mi Calm Calm - N/A   Mostly Cloudy
2:53 PM 62.1 °F 43.0 °F 50% 30.13 in 10.0 mi South 4.6 mph - N/A   Overcast
3:53 PM 62.1 °F 43.0 °F 50% 30.14 in 10.0 mi Calm Calm - N/A   Overcast
4:53 PM 60.1 °F 46.0 °F 60% 30.15 in 10.0 mi WNW 3.5 mph - N/A   Overcast
5:53 PM 60.1 °F 48.0 °F 64% 30.15 in 10.0 mi Calm Calm - N/A   Overcast
6:53 PM 60.1 °F 46.9 °F 62% 30.16 in 10.0 mi SSW 3.5 mph - N/A   Overcast
7:53 PM 59.0 °F 46.9 °F 64% 30.16 in 10.0 mi Calm Calm - N/A   Mostly Cloudy
8:53 PM 57.0 °F 46.9 °F 69% 30.18 in 10.0 mi Calm Calm - N/A   Overcast
9:53 PM 57.0 °F 46.9 °F 69% 30.19 in 10.0 mi Calm Calm - N/A   Overcast
10:53 PM 57.9 °F 48.0 °F 70% 30.19 in 10.0 mi Calm Calm - N/A   Overcast
11:53 PM 57.0 °F 48.0 °F 72% 30.19 in 10.0 mi SE 4.6 mph - N/A   Mostly Cloudy